Regional Weather Roundup
Issued by NWS Newport/Morehead, NC

Current Version | Previous Version | Graphics & Text | Print | Product List | Glossary Off
Versions: 1 2 3 4 5 6 7 8 9 10 11 12 13 14 15 16 17 18 19 20 21 22 23 24 25 26 27 28 29 30 31 32 33 34 35 36 37 38 39 40 41 42 43 44 45 46 47 48 49 50

000
ASUS42 KMHX 310022
RWRMHX
WEATHER ROUNDUP FOR EASTERN NORTH CAROLINA
NATIONAL WEATHER SERVICE NEWPORT/MOREHEAD CITY NC
800 PM EDT THU OCT 30 2014

NOTE: "FAIR" INDICATES FEW OR NO CLOUDS BELOW 12,000 FEET
WITH NO SIGNIFICANT WEATHER AND/OR OBSTRUCTIONS TO VISIBILITY

NCZ015>017-031-032-045>047-102-103-310100-
NORTH COAST

CITY           SKY/WX    TMP DP  RH WIND       PRES   REMARKS
EDENTON        CLEAR     55  49  80 NE3       30.00S
ELIZABETH CITY CLEAR     58  48  69 N8        30.00S
KITTY HAWK     CLEAR     60  46  59 N6        29.98R
MANTEO         CLEAR     58  47  65 N9        29.99S

$$

NCZ045>047-081-094-103-104-310100-
CENTRAL COAST

CITY           SKY/WX    TMP DP  RH WIND       PRES   REMARKS
FRISCO         CLEAR     60  49  66 NE10G17   29.97R
SWANQUARTER      N/A     55 N/A N/A NE1       29.94S

$$

NCZ095-097-098-100-101-310100-
SOUTHERN COAST

CITY           SKY/WX    TMP DP  RH WIND       PRES   REMARKS
BEAUFORT       PTCLDY    59  53  80 NE3       29.97R
CEDAR ISLAND     N/A     63 N/A N/A NE17      30.00S
JACKSONVILLE   CLEAR     58  52  80 N6        29.96S
PINEY ISLAND   CLEAR     64  52  64 NE13      29.96S
WILMINGTON     CLEAR     57  53  86 NE5       29.96R


$$

NCZ011>013-027>030-043-044-078>080-089-090>093-098-310100-
COASTAL PLAIN

CITY           SKY/WX    TMP DP  RH WIND       PRES   REMARKS
AHOSKIE        NOT AVBL
CLINTON        CLEAR     55  49  82 CALM      29.98S
ELIZABETHTOWN  CLEAR     56  49  77 CALM      29.97S
GOLDSBORO      CLEAR     56  52  87 SE1       29.97R
GREENVILLE     CLEAR     50  46  87 CALM      30.01S
HAVELOCK       CLEAR     59  53  80 NE6       29.97S
KENANSVILLE    CLEAR     51  48  90 CALM      29.99S
KINSTON        CLEAR     52  48  87 CALM      29.99S
NEW BERN       CLEAR     58  51  78 NE5       29.99R
RICHLANDS      CLEAR     54  48  82 CALM      29.98S
ROCKY MOUNT    CLEAR     51  47  86 CALM      29.99S
WASHINGTON     CLEAR     52  49  90 CALM      29.99S
WHITEVILLE     CLEAR     56  51  83 CALM      29.95S

$$

AMZ130-135-150-152-154-156-158-170-250-252-270-ANZ085-086-088-633-658-670-310100-
MARINE OBSERVATIONS

STATION/POSITION TIME  TEMP    WIND        PRES    WAVE   SWELL
                       AIR SEA DIR/SP/G            HT/PER HT/PER
                 (UTC) (F)     (DEG/KT/KT) (MB)    (FT/S) (FT/S)
CHESAPEAKE LIGHT 0000   59      10/ 14/ 15 1016.6
64 E VA BEACH    0000   61 67   10/ 12/ 16 1015.2    3/ 5   2/ 7
DUCK             0000   61 67   10/ 13/ 18 1014.7
2 E DUCK         NOT AVBL
10 NE DUCK       0000      67                N/A     3/ 6
OREGON INLET     0000   61 68   20/ 11/ 17 1015.2
13E OREGON INLT  0000      69                N/A     4/ 5
HATTERAS CG      0000   63 69   30/ 12/ 18 1015.1
DIAMOND BUOY     0000   65      10/ 19/ 23 1014.0    4/ 5   2/ 8
17 S OCRACOKE    NOT AVBL
CAPE LOOKOUT     0000   64      40/ 18/ 20 1014.4
BEAUFORT LAB     0000   60 70   50/  3/  7 1014.0
30 SE NEW RIVER  0000   66 74   40/ 16/ 19 1013.8    3/ 5
5 SE WRIGHTSVLE  0000   63 71   60/ 12/ 16   N/A
225 S CAPE HAT   NOT AVBL
41 SE CHARLESTON 0000   70 77   20/ 16/ 17 1012.6    4/ 6   2/ 8

$$



USA.gov is the U.S. government's official web portal to all federal, state and local government web resources and services.